Stockton, CA

7:35 AM PDT on August 23, 2017 (GMT -0700)
Stockton Metro

Weather History for KSCK - November, 2011

Change the Weather History Date:

Thursday, November 10, 2011

  Actual Average Record
Temperature  
Mean Temperature 51 °F -  
Max Temperature 70 °F 67 °F 80 °F (1955)
Min Temperature 32 °F 43 °F 32 °F (2011)
Degree Days  
Heating Degree Days 14 10  
Month to date heating degree days 130 85  
Since 1 July heating degree days 198 182  
Cooling Degree Days 0 0  
Month to date cooling degree days 0 0  
Year to date cooling degree days 1191 1320  
Growing Degree Days 2 (Base 50)    
Moisture  
Dew Point 37 °F    
Average Humidity 63    
Maximum Humidity 100    
Minimum Humidity 26    
Precipitation  
Precipitation 0.00 in 0.05 in 1.20 in (1983)
Month to date precipitation 0.32 0.52  
Year to date precipitation 9.52 10.67  
Since 1 July precipitation 1.05  
Snow  
Snow 0.00 in - 0.00 in (2001)
Month to date snowfall 0.0  
Since 1 July snowfall 0.0  
Since 1 September snowfall 0.0  
Snow Depth -    
Sea Level Pressure  
Sea Level Pressure 30.06 in    
Wind  
Wind Speed 1 mph (South)    
Max Wind Speed 12 mph    
Max Gust Speed 15 mph    
Visibility 6 miles    
Events      
T = Trace of Precipitation, MM = Missing Value Source: NWS Daily Summary

Daily Weather History Graph

Daily Weather History Graph

Search for Another Location

Airport or City:

Trip Planner

Search our weather history database for the weather conditions in past years. The results will help you decide how hot, cold, wet, or windy it might be!

Date:

Astronomy

Nov. 10, 2011 Rise Set
Actual Time 6:39 AM PST 4:57 PM PST
Civil Twilight 6:12 AM PST 5:25 PM PST
Nautical Twilight 5:40 AM PST 5:56 PM PST
Astronomical Twilight 5:09 AM PST 6:27 PM PST
Moon 4:49 PM PST (11/10) 6:36 AM PST (11/10)
Length of Visible Light 11h 13m
Length of Day
10h 17m
Full, 100% of the Moon is Illuminated
Nov 10
Full
Nov 10
Full
Nov 18
Last Quarter
Nov 24
New
Dec 2
First Quarter

Hourly Weather History & Observations

Time (PST) Temp. Windchill Dew Point Humidity Pressure Visibility Wind Dir Wind Speed Gust Speed Precip Events Conditions
12:55 AM 39.9 °F - 35.1 °F 83% 30.16 in 7.0 mi Calm Calm - N/A   Clear
1:55 AM 37.0 °F - 33.1 °F 86% 30.16 in 6.0 mi Calm Calm - N/A   Clear
2:55 AM 37.0 °F - 35.1 °F 93% 30.17 in 7.0 mi Calm Calm - N/A   Clear
3:55 AM 37.4 °F - 33.8 °F 87% 30.16 in 6.0 mi Calm Calm - N/A   Clear
4:55 AM 36.0 °F - 33.1 °F 89% 30.18 in 6.0 mi Calm Calm - N/A   Clear
5:55 AM 36.0 °F - 33.1 °F 89% 30.17 in 6.0 mi Calm Calm - N/A   Clear
6:55 AM 34.0 °F 31.0 °F 33.1 °F 96% 30.17 in 3.0 mi WSW 3.5 mph - N/A   Clear
7:55 AM 36.0 °F - 36.0 °F 100% 30.17 in 4.0 mi Calm Calm - N/A   Clear
8:55 AM 44.1 °F - 39.9 °F 85% 30.15 in 6.0 mi Calm Calm - N/A   Clear
9:55 AM 50.0 °F - 42.1 °F 74% 30.14 in 5.0 mi Calm Calm - N/A   Haze
10:55 AM 57.0 °F - 42.1 °F 57% 30.12 in 5.0 mi Calm Calm - N/A   Haze
11:55 AM 62.1 °F - 39.9 °F 44% 30.07 in 6.0 mi SE 8.1 mph - N/A   Haze
12:55 PM 64.4 °F - 35.6 °F 34% 30.04 in 7.0 mi SSE 8.1 mph - N/A   Clear
1:55 PM 66.9 °F - 36.0 °F 32% 30.01 in 7.0 mi Variable 5.8 mph - N/A   Clear
2:55 PM 69.1 °F - 34.0 °F 27% 29.99 in 9.0 mi SSE 8.1 mph - N/A   Clear
3:55 PM 68.0 °F - 34.0 °F 28% 29.98 in 9.0 mi South 5.8 mph - N/A   Clear
4:55 PM 62.1 °F - 36.0 °F 38% 29.98 in 9.0 mi WSW 4.6 mph - N/A   Clear
5:55 PM 55.9 °F - 39.9 °F 55% 29.97 in 5.0 mi Calm Calm - N/A   Haze
6:55 PM 52.0 °F - 41.0 °F 66% 29.97 in 7.0 mi West 3.5 mph - N/A   Clear
7:55 PM 50.0 °F - 39.9 °F 68% 29.97 in 7.0 mi Calm Calm - N/A   Clear
8:55 PM 45.0 °F - 37.9 °F 76% 29.98 in 7.0 mi Calm Calm - N/A   Clear
9:55 PM 45.0 °F - 37.9 °F 76% 29.96 in 6.0 mi Calm Calm - N/A   Haze
10:55 PM 43.0 °F - 37.9 °F 82% 29.94 in 6.0 mi Calm Calm - N/A   Haze
11:55 PM 45.0 °F 43.5 °F 37.9 °F 76% 29.91 in 6.0 mi ESE 3.5 mph - N/A   Haze